Location: St Paul
(33.9360°N, 83.4200°W)
Time: 08:17:24
(UTC-05:00)

NOSS 2-1 (E) - Pass Details

Date: 06 October 2017
Orbit: 503 x 1702 km, 63.3° (Epoch: 11 December)

Event Time Altitude Azimuth Distance (km) Brightness Sun altitude
Rises 19:38:33 0° 219° (SW) 2,615 7.4 -6.6°
Reaches altitude 10° 19:40:43 10° 223° (SW) 1,706 6.5 -7.0°
Maximum altitude 19:44:19 56° 303° (WNW) 608 3.9 -7.8°
Drops below altitude 10° 19:48:13 10° 23° (NNE) 1,833 5.8 -8.6°
Sets 19:50:37 0° 27° (NNE) 2,837 6.7 -9.1°
